DW8722 Weather Reports


Display with metric or nautical units.
time (UTC)temp
F
wind
direction
speed
MPH
gust
MPH
rain 1hr
in
rain 24hr
in
rain mn
in
humidity
%
barometer
mb
20260502163932 69 42 2.0 5.0 0.00 0.00 0.00 41 1022.2
20260502162912 69 344 1.0 4.0 0.00 0.00 0.00 41 1022.3
20260502161931 69 46 1.0 7.0 0.00 0.00 0.00 42 1022.3
20260502160926 68 290 3.0 7.0 0.00 0.00 0.00 41 1022.3
20260502151819 65 28 2.0 8.0 0.00 0.00 0.00 52 1022.2
20260502150823 65 318 2.0 8.0 0.00 0.00 0.00 54 1022.2
20260502130605 50 0 0.0 1.0 0.00 0.00 0.00 90 1021.2
20260502123643 47 337 0.0 0.0 0.00 0.00 0.00 89 1020.9
20260502122653 47 337 0.0 0.0 0.00 0.00 0.00 89 1020.8
20260502121639 46 317 0.0 1.0 0.00 0.00 0.00 90 1020.5
20260502120632 46 325 1.0 3.0 0.00 0.00 0.00 90 1020.5
20260502115604 46 321 0.0 3.0 0.00 0.00 0.00 90 1020.3
20260502114605 46 305 0.0 1.0 0.00 0.00 0.00 89 1020.3
20260502113549 46 294 0.0 0.0 0.00 0.00 0.00 90 1020.0
20260502111432 47 295 0.0 0.0 0.00 0.00 0.00 89 1019.8
20260502110455 47 292 0.0 0.0 0.00 0.00 0.00 90 1019.6
20260502105437 47 298 0.0 0.0 0.00 0.00 0.00 90 1019.5
20260502104439 47 307 0.0 0.0 0.00 0.00 0.00 90 1019.3
20260502103448 48 313 0.0 0.0 0.00 0.00 0.00 90 1019.2
20260502102500 48 285 0.0 0.0 0.00 0.00 0.00 90 1019.3
20260502101439 48 285 0.0 0.0 0.00 0.00 0.00 90 1019.2
20260502100408 49 285 0.0 0.0 0.00 0.00 0.00 90 1019.2
20260502091309 48 281 0.0 1.0 0.00 0.00 0.00 90 1019.1
20260502090255 48 279 0.0 1.0 0.00 0.00 0.00 90 1019.0
20260502071130 50 318 0.0 0.0 0.00 0.00 0.00 92 1019.0
20260502065050 51 298 0.0 0.0 0.00 0.00 0.00 91 1019.0
20260502064100 51 284 0.0 0.0 0.00 0.00 0.00 91 1019.0
20260502063118 51 286 0.0 0.0 0.00 0.00 0.00 91 1019.0
20260502062143 50 286 0.0 0.0 0.00 0.00 0.00 90 1019.1
20260502055941 51 286 0.0 0.0 0.00 0.01 0.00 90 1019.1
20260502054930 52 286 0.0 0.0 0.00 0.01 0.00 91 1019.2
20260502053940 52 291 0.0 0.0 0.00 0.01 0.00 90 1019.3
20260502052925 52 250 0.0 0.0 0.00 0.01 0.00 90 1019.2
20260502051852 53 250 0.0 0.0 0.00 0.01 0.00 90 1019.1
20260502050846 53 250 0.0 0.0 0.00 0.02 0.00 89 1019.0
20260502044808 54 248 0.0 0.0 0.00 0.02 0.02 89 1018.8
20260502043825 54 248 0.0 0.0 0.00 0.02 0.02 89 1018.7
20260502042824 54 233 0.0 0.0 0.00 0.02 0.02 89 1018.7
20260502041836 55 227 0.0 0.0 0.00 0.02 0.02 88 1018.8
20260502040805 55 227 0.0 0.0 0.00 0.02 0.02 88 1018.9
20260502034626 56 129 0.0 0.0 0.00 0.02 0.02 87 1018.9
20260502033601 56 129 0.0 0.0 0.00 0.02 0.02 87 1018.8
20260502032615 57 129 0.0 0.0 0.00 0.02 0.02 85 1018.8
20260502031627 57 129 0.0 0.0 0.00 0.02 0.02 85 1018.7
20260502030626 57 129 0.0 0.0 0.00 0.02 0.02 85 1018.6
20260502024457 58 129 0.0 0.0 0.00 0.02 0.02 85 1018.6
20260502022251 59 129 0.0 0.0 0.00 0.02 0.02 84 1018.3
20260502021250 59 129 0.0 0.0 0.00 0.02 0.02 82 1018.0
20260502020252 59 129 0.0 0.0 0.00 0.02 0.02 81 1017.8
20260502015245 60 129 0.0 0.0 0.00 0.02 0.02 81 1017.6
20260502014217 60 129 0.0 0.0 0.00 0.02 0.02 79 1017.4
20260502013227 61 129 0.0 0.0 0.00 0.02 0.02 79 1017.4
20260502012250 61 129 0.0 0.0 0.00 0.02 0.02 78 1017.2
20260502011245 61 119 0.0 0.0 0.00 0.02 0.02 77 1017.0
20260502010227 61 119 0.0 0.0 0.00 0.02 0.02 75 1016.8
20260502005241 62 119 0.0 0.0 0.00 0.02 0.02 75 1016.7
20260502004248 62 144 0.0 0.0 0.00 0.02 0.02 74 1016.5
20260502003310 62 140 0.0 0.0 0.00 0.02 0.02 74 1016.4
20260502002254 63 96 0.0 0.0 0.00 0.02 0.02 73 1016.2
20260502001313 63 104 0.0 0.0 0.00 0.02 0.02 73 1016.1
20260502000334 63 92 0.0 0.0 0.00 0.02 0.02 71 1015.9
20260501235351 63 94 0.0 0.0 0.00 0.02 0.02 70 1015.9
20260501234338 63 95 0.0 0.0 0.00 0.02 0.02 69 1015.7
20260501233356 64 111 0.0 2.0 0.00 0.02 0.02 69 1015.6
20260501232340 64 122 0.0 1.0 0.00 0.02 0.02 68 1015.6
20260501231359 64 99 0.0 0.0 0.00 0.02 0.02 66 1015.5
20260501225159 64 107 0.0 0.0 0.00 0.02 0.02 65 1015.3
20260501224154 64 106 1.0 0.0 0.00 0.02 0.02 65 1015.2
20260501223211 64 103 1.0 6.0 0.00 0.02 0.02 64 1015.2
20260501222146 64 109 1.0 7.0 0.00 0.02 0.02 64 1015.2
20260501221157 64 83 1.0 7.0 0.00 0.02 0.02 64 1015.0
20260501220218 64 74 1.0 13.0 0.00 0.02 0.02 63 1014.9
20260501215223 65 62 2.0 7.0 0.00 0.02 0.02 62 1015.0
20260501214216 65 55 1.0 4.0 0.00 0.02 0.02 60 1014.8
20260501212032 66 87 4.0 10.0 0.00 0.02 0.02 58 1015.3
20260501211002 66 107 4.0 10.0 0.00 0.02 0.02 59 1015.5
20260501205939 66 96 3.0 9.0 0.00 0.02 0.02 62 1015.6
20260501204933 65 77 3.0 11.0 0.00 0.02 0.02 61 1015.8
20260501203930 64 71 6.0 12.0 0.00 0.02 0.02 62 1016.3
20260501202951 65 50 5.0 12.0 0.00 0.02 0.02 61 1016.2
20260501201917 64 42 5.0 16.0 0.00 0.02 0.02 63 1016.3
20260501193926 64 10 7.0 16.0 0.00 0.03 0.02 61 1015.5
20260501192935 64 34 8.0 23.0 0.00 0.03 0.02 61 1015.5
20260501191946 65 78 10.0 23.0 0.00 0.03 0.02 61 1015.9
20260501190934 65 0 10.0 18.0 0.00 0.03 0.02 61 1015.7
20260501185912 66 48 8.0 21.0 0.00 0.03 0.02 60 1015.8
20260501184842 65 66 9.0 21.0 0.00 0.03 0.02 61 1016.0
20260501183810 66 42 8.0 16.0 0.00 0.03 0.02 61 1016.2
20260501182802 64 94 6.0 17.0 0.00 0.03 0.02 67 1016.5
20260501181800 63 64 8.0 17.0 0.00 0.03 0.02 67 1016.7
20260501180802 62 36 7.0 16.0 0.00 0.03 0.02 66 1017.2
20260501175742 62 22 7.0 17.0 0.00 0.03 0.02 67 1017.3